Location: Sternwarte ZA, Rosenfeld-Brittheim
(48.2889°N, 8.6789°E)
Time: 07:49:22
(UTC+02:00)

ISS - Pass Details

Date: 25 October 2020
Orbit: 418 x 419 km, 51.6° (Epoch: 19 October)

Event Time Altitude Azimuth Distance (km) Brightness Sun altitude
Exits shadow 05:52:30 - 226° (SW) 1,539 -1.3 -11.9°
Reaches altitude 10° 05:52:37 10° 225° (SW) 1,492 -1.3 -11.9°
Maximum altitude 05:55:52 49° 150° (SSE) 544 -3.0 -11.3°
Drops below altitude 10° 05:59:09 10° 74° (ENE) 1,499 0.2 -10.8°
Sets 06:01:17 0° 69° (ENE) 2,366 1.3 -10.5°
